,,Stat6,,Stat2,,Stat8,,Stat9,,Stat10,,Wind1,,Wind1,
time,status,PA1M_AVG,status,PR1M_SUM,status,RH1M_AVG,status,SR1M_AVG,status,TA1M_AVG,status,W1dAve1m,status,W1sAve1m,
2009-08-21, 00:00:00,VALID,918.7,VALID,0,VALID,100,VALID,-0.0849042,VALID,19.6856,VALID,270,VALID,0,
2009-08-21, 00:01:00,VALID,918.713,VALID,0,VALID,100,VALID,-0.0849042,VALID,19.7108,VALID,239,VALID,0.0851753,
2009-08-21, 00:02:00,VALID,918.723,VALID,0,VALID,100,VALID,-0.0849042,VALID,19.6888,VALID,182,VALID,0,
2009-08-21, 00:03:00,VALID,918.739,VALID,0,VALID,100,VALID,-0.0849042,VALID,19.6561,VALID,195,VALID,0.00106534,
2009-08-21, 00:04:00,VALID,918.741,VALID,0,VALID,100,VALID,-0.101885,VALID,19.6369,VALID,208,VALID,0,
2009-08-21, 00:05:00,VALID,918.743,VALID,0,VALID,100,VALID,-0.101885,VALID,19.6461,VALID,208,VALID,0,
2009-08-21, 00:06:00,VALID,918.717,VALID,0,VALID,100,VALID,-0.0679233,VALID,19.6621,VALID,208,VALID,0,
2009-08-21, 00:07:00,VALID,918.7,VALID,0,VALID,100,VALID,-0.101885,VALID,19.7118,VALID,211,VALID,0,
2009-08-21, 00:08:00,VALID,918.694,VALID,0,VALID,100,VALID,-0.0679233,VALID,19.747,VALID,211,VALID,0,
2009-08-21, 00:09:00,VALID,918.686,VALID,0,VALID,100,VALID,-0.0849042,VALID,19.7625,VALID,198,VALID,0,
2009-08-21, 00:10:00,VALID,918.654,VALID,0,VALID,100,VALID,-0.0849042,VALID,19.7495,VALID,196,VALID,0,
2009-08-21, 00:11:00,VALID,918.643,VALID,0,VALID,100,VALID,-0.101885,VALID,19.7337,VALID,196,VALID,0,
2009-08-21, 00:12:00,VALID,918.658,VALID,0,VALID,100,VALID,-0.0509425,VALID,19.7275,VALID,196,VALID,0,
2009-08-21, 00:13:00,VALID,918.662,VALID,0,VALID,100,VALID,-0.0679233,VALID,19.7238,VALID,196,VALID,0,
2009-08-21, 00:14:00,VALID,918.666,VALID,0,VALID,100,VALID,-0.101885,VALID,19.724,VALID,196,VALID,0,
2009-08-21, 00:15:00,VALID,918.664,VALID,0,VALID,100,VALID,-0.0849042,VALID,19.7205,VALID,196,VALID,0,
2009-08-21, 00:16:00,VALID,918.677,VALID,0,VALID,100,VALID,-0.0849042,VALID,19.7273,VALID,196,VALID,0,
2009-08-21, 00:17:00,VALID,918.669,VALID,0,VALID,100,VALID,-0.101885,VALID,19.7205,VALID,195,VALID,0,
2009-08-21, 00:18:00,VALID,918.677,VALID,0,VALID,100,VALID,-0.0849042,VALID,19.7238,VALID,194,VALID,0,
2009-08-21, 00:19:00,VALID,918.667,VALID,0,VALID,100,VALID,-0.0849042,VALID,19.7337,VALID,194,VALID,0,
2009-08-21, 00:20:00,VALID,918.649,VALID,0,VALID,100,VALID,-0.0339617,VALID,19.7205,VALID,194,VALID,0,
2009-08-21, 00:21:00,VALID,918.65,VALID,0,VALID,100,VALID,-0.0339617,VALID,19.7075,VALID,194,VALID,0,
2009-08-21, 00:22:00,VALID,918.621,VALID,0,VALID,100,VALID,-0.0509425,VALID,19.6913,VALID,194,VALID,0,
2009-08-21, 00:23:00,VALID,918.613,VALID,0,VALID,100,VALID,-0.0509425,VALID,19.6913,VALID,194,VALID,0,
2009-08-21, 00:24:00,VALID,918.601,VALID,0,VALID,100,VALID,-0.0849042,VALID,19.6911,VALID,194,VALID,0,
2009-08-21, 00:25:00,VALID,918.573,VALID,0,VALID,100,VALID,-0.0509425,VALID,19.6878,VALID,194,VALID,0,
2009-08-21, 00:26:00,VALID,918.547,VALID,0,VALID,100,VALID,-0.0509425,VALID,19.6783,VALID,231,VALID,0,
2009-08-21, 00:27:00,VALID,918.576,VALID,0,VALID,100,VALID,-0.0849042,VALID,19.6813,VALID,266,VALID,0,
2009-08-21, 00:28:00,VALID,918.597,VALID,0,VALID,100,VALID,-0.0679233,VALID,19.6684,VALID,274,VALID,0,
2009-08-21, 00:29:00,VALID,918.606,VALID,0,VALID,100,VALID,-0.0339617,VALID,19.6297,VALID,268,VALID,0,
2009-08-21, 00:30:00,VALID,918.594,VALID,0,VALID,100,VALID,-0.0509425,VALID,19.5937,VALID,226,VALID,0,
2009-08-21, 00:31:00,VALID,918.586,VALID,0,VALID,100,VALID,-0.0679233,VALID,19.5972,VALID,228,VALID,0,
2009-08-21, 00:32:00,VALID,918.601,VALID,0,VALID,100,VALID,0,VALID,19.6199,VALID,229,VALID,0,
2009-08-21, 00:33:00,VALID,918.594,VALID,0,VALID,100,VALID,-0.0339617,VALID,19.6229,VALID,229,VALID,0,
2009-08-21, 00:34:00,VALID,918.589,VALID,0,VALID,100,VALID,-0.101885,VALID,19.6099,VALID,229,VALID,0,
2009-08-21, 00:35:00,VALID,918.599,VALID,0,VALID,100,VALID,-0.0509425,VALID,19.6297,VALID,229,VALID,0,
2009-08-21, 00:36:00,VALID,918.588,VALID,0,VALID,100,VALID,-0.0679233,VALID,19.6459,VALID,202,VALID,0,
2009-08-21, 00:37:00,VALID,918.578,VALID,0,VALID,100,VALID,-0.101885,VALID,19.6459,VALID,197,VALID,0,
2009-08-21, 00:38:00,VALID,918.561,VALID,0,VALID,100,VALID,-0.0339617,VALID,19.6586,VALID,202,VALID,0,
2009-08-21, 00:39:00,VALID,918.534,VALID,0,VALID,100,VALID,-0.0339617,VALID,19.6519,VALID,205,VALID,0,
2009-08-21, 00:40:00,VALID,918.501,VALID,0,VALID,100,VALID,-0.0339617,VALID,19.6489,VALID,192,VALID,0,
2009-08-21, 00:41:00,VALID,918.493,VALID,0,VALID,100,VALID,-0.0509425,VALID,19.6489,VALID,104,VALID,0,
2009-08-21, 00:42:00,VALID,918.479,VALID,0,VALID,100,VALID,-0.0679233,VALID,19.6297,VALID,142,VALID,0,
2009-08-21, 00:43:00,VALID,918.467,VALID,0,VALID,100,VALID,-0.0849042,VALID,19.6202,VALID,151,VALID,0,
2009-08-21, 00:44:00,VALID,918.46,VALID,0,VALID,100,VALID,-0.0339617,VALID,19.6329,VALID,157,VALID,0,
2009-08-21, 00:45:00,VALID,918.452,VALID,0,VALID,100,VALID,-0.0339617,VALID,19.6556,VALID,153,VALID,0,
2009-08-21, 00:46:00,VALID,918.429,VALID,0,VALID,100,VALID,-0.0169808,VALID,19.6713,VALID,165,VALID,0,
2009-08-21, 00:47:00,VALID,918.423,VALID,0,VALID,100,VALID,-0.0169808,VALID,19.73,VALID,164,VALID,0,
2009-08-21, 00:48:00,VALID,918.414,VALID,0,VALID,100,VALID,-0.0169808,VALID,19.7919,VALID,159,VALID,0,
2009-08-21, 00:49:00,VALID,918.419,VALID,0,VALID,100,VALID,-0.0679233,VALID,19.8401,VALID,169,VALID,0,
2009-08-21, 00:50:00,VALID,918.418,VALID,0,VALID,100,VALID,-0.0339617,VALID,19.8987,VALID,171,VALID,0,
2009-08-21, 00:51:00,VALID,918.403,VALID,0,VALID,99.9158,VALID,-0.0509425,VALID,19.9377,VALID,162,VALID,0,
2009-08-21, 00:52:00,VALID,918.423,VALID,0,VALID,99.4395,VALID,-0.0679233,VALID,19.9344,VALID,72,VALID,0,
2009-08-21, 00:53:00,VALID,918.429,VALID,0,VALID,99.1953,VALID,-0.0169808,VALID,19.9374,VALID,74,VALID,0,
2009-08-21, 00:54:00,VALID,918.439,VALID,0,VALID,99.0885,VALID,-0.0509425,VALID,19.9474,VALID,74,VALID,0,
2009-08-21, 00:55:00,VALID,918.445,VALID,0,VALID,99.0466,VALID,-0.0679233,VALID,19.9439,VALID,74,VALID,0,
2009-08-21, 00:56:00,VALID,918.443,VALID,0,VALID,98.9283,VALID,-0.0849042,VALID,19.9182,VALID,74,VALID,0,
2009-08-21, 00:57:00,VALID,918.452,VALID,0,VALID,98.8965,VALID,-0.0339617,VALID,19.9142,VALID,78,VALID,0,
2009-08-21, 00:58:00,VALID,918.466,VALID,0,VALID,98.7465,VALID,0.0339617,VALID,19.9232,VALID,173,VALID,0,
2009-08-21, 00:59:00,VALID,918.485,VALID,0,VALID,98.6422,VALID,0.0339617,VALID,19.9686,VALID,167,VALID,0,
2009-08-21, 01:00:00,VALID,918.497,VALID,0,VALID,98.3446,VALID,0.0679233,VALID,20.0238,VALID,134,VALID,0,
2009-08-21, 01:01:00,VALID,918.514,VALID,0,VALID,98.0344,VALID,0.0169808,VALID,20.0575,VALID,134,VALID,0,
2009-08-21, 01:02:00,VALID,918.52,VALID,0,VALID,97.8156,VALID,0,VALID,20.0962,VALID,166,VALID,0,
2009-08-21, 01:03:00,VALID,918.52,VALID,0,VALID,97.5511,VALID,0.0169808,VALID,20.1189,VALID,185,VALID,0,
2009-08-21, 01:04:00,VALID,918.519,VALID,0,VALID,97.1951,VALID,0,VALID,20.1638,VALID,190,VALID,0.0796875,
2009-08-21, 01:05:00,VALID,918.501,VALID,0,VALID,96.8797,VALID,0,VALID,20.2577,VALID,188,VALID,0,
2009-08-21, 01:06:00,VALID,918.492,VALID,0,VALID,96.4652,VALID,0.0339617,VALID,20.3061,VALID,188,VALID,0,
2009-08-21, 01:07:00,VALID,918.469,VALID,0,VALID,96.132,VALID,0.0509425,VALID,20.3388,VALID,187,VALID,0,
2009-08-21, 01:08:00,VALID,918.455,VALID,0,VALID,95.6272,VALID,0.0339617,VALID,20.3777,VALID,192,VALID,0,
2009-08-21, 01:09:00,VALID,918.438,VALID,0,VALID,95.3513,VALID,0.0339617,VALID,20.4462,VALID,195,VALID,0,
2009-08-21, 01:10:00,VALID,918.419,VALID,0,VALID,94.9838,VALID,0,VALID,20.4719,VALID,209,VALID,0,
2009-08-21, 01:11:00,VALID,918.406,VALID,0,VALID,94.8172,VALID,0.0509425,VALID,20.5046,VALID,210,VALID,0,
2009-08-21, 01:12:00,VALID,918.377,VALID,0,VALID,94.6074,VALID,0.0509425,VALID,20.5335,VALID,210,VALID,0,
2009-08-21, 01:13:00,VALID,918.373,VALID,0,VALID,94.4408,VALID,0.0339617,VALID,20.5662,VALID,210,VALID,0,
2009-08-21, 01:14:00,VALID,918.349,VALID,0,VALID,94.4993,VALID,0.0169808,VALID,20.5952,VALID,210,VALID,0,
2009-08-21, 01:15:00,VALID,918.316,VALID,0,VALID,95.0321,VALID,0.0169808,VALID,20.5954,VALID,233,VALID,0,
2009-08-21, 01:16:00,VALID,918.299,VALID,0,VALID,95.4225,VALID,0.0169808,VALID,20.5703,VALID,198,VALID,0,
2009-08-21, 01:17:00,VALID,918.29,VALID,0,VALID,95.8396,VALID,0.0509425,VALID,20.5108,VALID,204,VALID,0,
2009-08-21, 01:18:00,VALID,918.278,VALID,0,VALID,96.1486,VALID,0.0509425,VALID,20.4784,VALID,225,VALID,0,
2009-08-21, 01:19:00,VALID,918.253,VALID,0,VALID,96.202,VALID,0.0339617,VALID,20.4099,VALID,223,VALID,0,
2009-08-21, 01:20:00,VALID,918.23,VALID,0,VALID,96.441,VALID,0,VALID,20.385,VALID,191,VALID,0,
2009-08-21, 01:21:00,VALID,918.215,VALID,0,VALID,96.1371,VALID,0.0339617,VALID,20.3456,VALID,139,VALID,0.29524,
2009-08-21, 01:22:00,VALID,918.184,VALID,0,VALID,95.7162,VALID,0,VALID,20.3588,VALID,148,VALID,0.100836,
2009-08-21, 01:23:00,VALID,918.17,VALID,0,VALID,95.4428,VALID,0.0169808,VALID,20.4167,VALID,164,VALID,0.0673611,
2009-08-21, 01:24:00,VALID,918.155,VALID,0,VALID,95.1186,VALID,0,VALID,20.4621,VALID,141,VALID,0.182478,
2009-08-21, 01:25:00,VALID,918.12,VALID,0,VALID,94.7574,VALID,0.0339617,VALID,20.5013,VALID,147,VALID,0.0158155,
2009-08-21, 01:26:00,VALID,918.103,VALID,0,VALID,94.3581,VALID,0.0339617,VALID,20.5465,VALID,124,VALID,0.308789,
2009-08-21, 01:27:00,VALID,918.09,VALID,0,VALID,94.0593,VALID,0,VALID,20.6249,VALID,153,VALID,0.046875,
2009-08-21, 01:28:00,VALID,918.07,VALID,0,VALID,93.8279,VALID,-0.0339617,VALID,20.6617,VALID,151,VALID,0.00390625,
2009-08-21, 01:29:00,VALID,918.061,VALID,0,VALID,93.7643,VALID,-0.0339617,VALID,20.6746,VALID,160,VALID,0.0906613,
2009-08-21, 01:30:00,VALID,918.054,VALID,0,VALID,93.7058,VALID,-0.0679233,VALID,20.6752,VALID,146,VALID,0,
2009-08-21, 01:31:00,VALID,918.048,VALID,0,VALID,93.6219,VALID,-0.101885,VALID,20.6819,VALID,149,VALID,0,
2009-08-21, 01:32:00,VALID,918.045,VALID,0,VALID,93.6181,VALID,-0.0509425,VALID,20.6711,VALID,161,VALID,0,
2009-08-21, 01:33:00,VALID,918.037,VALID,0,VALID,93.7122,VALID,-0.101885,VALID,20.6819,VALID,188,VALID,0,
2009-08-21, 01:34:00,VALID,918.048,VALID,0,VALID,94.3365,VALID,-0.0679233,VALID,20.6779,VALID,188,VALID,0,
2009-08-21, 01:35:00,VALID,918.042,VALID,0,VALID,95.0893,VALID,-0.0849042,VALID,20.6817,VALID,217,VALID,0.050071,
2009-08-21, 01:36:00,VALID,918.044,VALID,0,VALID,95.5407,VALID,-0.0509425,VALID,20.6095,VALID,271,VALID,0,
2009-08-21, 01:37:00,VALID,918.04,VALID,0,VALID,96.2198,VALID,-0.0679233,VALID,20.5643,VALID,306,VALID,0.00111607,
2009-08-21, 01:38:00,VALID,918.047,VALID,0,VALID,96.6038,VALID,-0.0509425,VALID,20.4861,VALID,306,VALID,0,
2009-08-21, 01:39:00,VALID,918.039,VALID,0,VALID,97.0857,VALID,-0.0679233,VALID,20.4315,VALID,306,VALID,0,
2009-08-21, 01:40:00,VALID,918.043,VALID,0,VALID,97.56,VALID,-0.0849042,VALID,20.3731,VALID,305,VALID,0,
2009-08-21, 01:41:00,VALID,918.055,VALID,0,VALID,98.0483,VALID,-0.101885,VALID,20.3052,VALID,305,VALID,0,
2009-08-21, 01:42:00,VALID,918.047,VALID,0,VALID,98.4654,VALID,-0.0849042,VALID,20.2338,VALID,305,VALID,0,
2009-08-21, 01:43:00,VALID,918.044,VALID,0,VALID,98.791,VALID,-0.0849042,VALID,20.1694,VALID,305,VALID,0,
2009-08-21, 01:44:00,VALID,918.019,VALID,0,VALID,99.1712,VALID,-0.0849042,VALID,20.1134,VALID,305,VALID,0,
2009-08-21, 01:45:00,VALID,918.009,VALID,0,VALID,99.442,VALID,-0.0849042,VALID,20.0877,VALID,305,VALID,0,
2009-08-21, 01:46:00,VALID,917.996,VALID,0,VALID,99.6048,VALID,-0.0849042,VALID,20.0458,VALID,305,VALID,0,
2009-08-21, 01:47:00,VALID,917.974,VALID,0,VALID,99.8006,VALID,-0.0849042,VALID,20.0033,VALID,305,VALID,0,
2009-08-21, 01:48:00,VALID,917.954,VALID,0,VALID,99.984,VALID,-0.0679233,VALID,19.9709,VALID,305,VALID,0,
2009-08-21, 01:49:00,VALID,917.93,VALID,0,VALID,100,VALID,-0.0339617,VALID,19.9347,VALID,305,VALID,0,
2009-08-21, 01:50:00,VALID,917.906,VALID,0,VALID,100,VALID,-0.0509425,VALID,19.9152,VALID,305,VALID,0,
2009-08-21, 01:51:00,VALID,917.888,VALID,0,VALID,100,VALID,-0.0509425,VALID,19.9027,VALID,305,VALID,0,
2009-08-21, 01:52:00,VALID,917.891,VALID,0,VALID,100,VALID,-0.101885,VALID,19.8868,VALID,305,VALID,0,
2009-08-21, 01:53:00,VALID,917.876,VALID,0,VALID,100,VALID,-0.0509425,VALID,19.8571,VALID,305,VALID,0,
2009-08-21, 01:54:00,VALID,917.871,VALID,0,VALID,100,VALID,-0.0849042,VALID,19.87,VALID,305,VALID,0,
2009-08-21, 01:55:00,VALID,917.859,VALID,0,VALID,100,VALID,-0.0679233,VALID,19.8795,VALID,247,VALID,0.0302973,
2009-08-21, 01:56:00,VALID,917.845,VALID,0,VALID,99.9354,VALID,-0.0509425,VALID,19.8633,VALID,242,VALID,0,
2009-08-21, 01:57:00,VALID,917.843,VALID,0,VALID,99.8934,VALID,-0.0849042,VALID,19.863,VALID,242,VALID,0,
2009-08-21, 01:58:00,VALID,917.822,VALID,0,VALID,99.8032,VALID,-0.0679233,VALID,19.8601,VALID,242,VALID,0,
2009-08-21, 01:59:00,VALID,917.812,VALID,0,VALID,99.7065,VALID,-0.0679233,VALID,19.8663,VALID,242,VALID,0,
2009-08-21, 02:00:00,VALID,917.799,VALID,0,VALID,99.6111,VALID,-0.0849042,VALID,19.8828,VALID,242,VALID,0,
2009-08-21, 02:01:00,VALID,917.79,VALID,0,VALID,99.4471,VALID,-0.0679233,VALID,19.906,VALID,242,VALID,0,
2009-08-21, 02:02:00,VALID,917.787,VALID,0,VALID,99.2793,VALID,-0.0849042,VALID,19.9282,VALID,243,VALID,0,
2009-08-21, 02:03:00,VALID,917.787,VALID,0,VALID,99.105,VALID,-0.0849042,VALID,19.9574,VALID,245,VALID,0,
2009-08-21, 02:04:00,VALID,917.797,VALID,0,VALID,98.9308,VALID,-0.0509425,VALID,19.9801,VALID,245,VALID,0,
2009-08-21, 02:05:00,VALID,917.801,VALID,0,VALID,98.6956,VALID,-0.101885,VALID,19.9896,VALID,236,VALID,0,
2009-08-21, 02:06:00,VALID,917.782,VALID,0,VALID,98.3637,VALID,-0.0679233,VALID,19.9931,VALID,253,VALID,0,
2009-08-21, 02:07:00,VALID,917.752,VALID,0,VALID,98.1946,VALID,-0.0849042,VALID,20.0158,VALID,262,VALID,0.0331597,
2009-08-21, 02:08:00,VALID,917.747,VALID,0,VALID,97.9288,VALID,-0.0509425,VALID,20.0253,VALID,252,VALID,0,
2009-08-21, 02:09:00,VALID,917.734,VALID,0,VALID,97.7063,VALID,-0.101885,VALID,20.0518,VALID,244,VALID,0.00590278,
2009-08-21, 02:10:00,VALID,917.724,VALID,0,VALID,97.4049,VALID,-0.101885,VALID,20.0577,VALID,241,VALID,0,
2009-08-21, 02:11:00,VALID,917.706,VALID,0,VALID,97.3261,VALID,-0.101885,VALID,20.084,VALID,238,VALID,0,
2009-08-21, 02:12:00,VALID,917.709,VALID,0,VALID,97.2015,VALID,-0.0339617,VALID,20.1097,VALID,238,VALID,0,
2009-08-21, 02:13:00,VALID,917.69,VALID,0,VALID,97.1709,VALID,-0.0509425,VALID,20.1059,VALID,238,VALID,0,
2009-08-21, 02:14:00,VALID,917.676,VALID,0,VALID,97.059,VALID,-0.0509425,VALID,20.074,VALID,142,VALID,0,
2009-08-21, 02:15:00,VALID,917.649,VALID,0,VALID,97.1023,VALID,-0.0169808,VALID,20.0283,VALID,122,VALID,0,
2009-08-21, 02:16:00,VALID,917.617,VALID,0,VALID,97.2396,VALID,-0.0679233,VALID,19.9826,VALID,122,VALID,0,
2009-08-21, 02:17:00,VALID,917.609,VALID,0,VALID,97.3668,VALID,-0.0679233,VALID,19.9731,VALID,126,VALID,0,
2009-08-21, 02:18:00,VALID,917.585,VALID,0,VALID,97.4405,VALID,-0.0679233,VALID,19.9766,VALID,150,VALID,0,
2009-08-21, 02:19:00,VALID,917.569,VALID,0,VALID,97.4354,VALID,-0.101885,VALID,20.0058,VALID,157,VALID,0,
2009-08-21, 02:20:00,VALID,917.555,VALID,0,VALID,97.4227,VALID,-0.0849042,VALID,20.0288,VALID,158,VALID,0,
2009-08-21, 02:21:00,VALID,917.541,VALID,0,VALID,97.3146,VALID,-0.0679233,VALID,20.0191,VALID,151,VALID,0.0123547,
2009-08-21, 02:22:00,VALID,917.517,VALID,0,VALID,97.3566,VALID,-0.0679233,VALID,19.9734,VALID,140,VALID,0.0435268,
2009-08-21, 02:23:00,VALID,917.49,VALID,0,VALID,97.513,VALID,-0.0509425,VALID,19.9414,VALID,139,VALID,0,
2009-08-21, 02:24:00,VALID,917.473,VALID,0,VALID,97.6986,VALID,-0.0679233,VALID,19.9247,VALID,111,VALID,0.00078125,
2009-08-21, 02:25:00,VALID,917.451,VALID,0,VALID,97.836,VALID,-0.101885,VALID,19.8957,VALID,99,VALID,0.0062934,
2009-08-21, 02:26:00,VALID,917.41,VALID,0,VALID,97.9479,VALID,-0.0849042,VALID,19.8468,VALID,94,VALID,0.00120192,
2009-08-21, 02:27:00,VALID,917.382,VALID,0,VALID,98.0547,VALID,-0.0849042,VALID,19.8146,VALID,91,VALID,0,
2009-08-21, 02:28:00,VALID,917.342,VALID,0,VALID,98.1958,VALID,-0.0679233,VALID,19.7819,VALID,81,VALID,0.0351563,
2009-08-21, 02:29:00,VALID,917.289,VALID,0,VALID,98.2976,VALID,-0.0169808,VALID,19.8111,VALID,90,VALID,0.289435,
2009-08-21, 02:30:00,VALID,917.27,VALID,0,VALID,98.2925,VALID,-0.0509425,VALID,19.8338,VALID,95,VALID,0.00319602,
2009-08-21, 02:31:00,VALID,917.228,VALID,0,VALID,98.2022,VALID,-0.0339617,VALID,19.8436,VALID,92,VALID,0.00167411,
2009-08-21, 02:32:00,VALID,917.2,VALID,0,VALID,98.1552,VALID,-0.0849042,VALID,19.8333,VALID,84,VALID,0.00111607,
2009-08-21, 02:33:00,VALID,917.184,VALID,0,VALID,98.1908,VALID,-0.0849042,VALID,19.8306,VALID,88,VALID,0,
2009-08-21, 02:34:00,VALID,917.147,VALID,0,VALID,98.1793,VALID,-0.101885,VALID,19.8338,VALID,115,VALID,0.00111607,
2009-08-21, 02:35:00,VALID,917.128,VALID,0,VALID,98.2073,VALID,-0.0679233,VALID,19.8468,VALID,104,VALID,0,
2009-08-21, 02:36:00,VALID,917.098,VALID,0,VALID,98.1971,VALID,-0.0849042,VALID,19.8598,VALID,130,VALID,0,
2009-08-21, 02:37:00,VALID,917.072,VALID,0,VALID,98.1666,VALID,-0.0509425,VALID,19.876,VALID,139,VALID,0,
2009-08-21, 02:38:00,VALID,917.044,VALID,0,VALID,98.1463,VALID,-0.0849042,VALID,19.876,VALID,139,VALID,0,
2009-08-21, 02:39:00,VALID,917.022,VALID,0,VALID,98.2098,VALID,-0.0509425,VALID,19.8793,VALID,147,VALID,0,
2009-08-21, 02:40:00,VALID,916.982,VALID,0,VALID,98.1895,VALID,-0.0339617,VALID,19.8728,VALID,149,VALID,0.132254,
2009-08-21, 02:41:00,VALID,916.971,VALID,0,VALID,98.1221,VALID,-0.0509425,VALID,19.8728,VALID,136,VALID,0,
2009-08-21, 02:42:00,VALID,916.964,VALID,0,VALID,98.0725,VALID,-0.101885,VALID,19.8855,VALID,173,VALID,0.161272,
2009-08-21, 02:43:00,VALID,916.948,VALID,0,VALID,97.9797,VALID,-0.0339617,VALID,19.882,VALID,133,VALID,0.088956,
2009-08-21, 02:44:00,VALID,916.919,VALID,0,VALID,97.9517,VALID,-0.0679233,VALID,19.8955,VALID,166,VALID,0.00297619,
2009-08-21, 02:45:00,VALID,916.915,VALID,0,VALID,97.9581,VALID,-0.0849042,VALID,19.915,VALID,163,VALID,0,
2009-08-21, 02:46:00,VALID,916.875,VALID,0,VALID,97.8767,VALID,-0.0849042,VALID,19.915,VALID,169,VALID,0.158854,
2009-08-21, 02:47:00,VALID,916.877,VALID,0,VALID,97.7838,VALID,-0.0509425,VALID,19.9247,VALID,120,VALID,0.000372024,
2009-08-21, 02:48:00,VALID,916.856,VALID,0,VALID,97.6351,VALID,-0.0679233,VALID,19.9309,VALID,162,VALID,0.370046,
2009-08-21, 02:49:00,VALID,916.836,VALID,0,VALID,97.4151,VALID,-0.0679233,VALID,19.9671,VALID,156,VALID,0.592578,
2009-08-21, 02:50:00,VALID,916.827,VALID,0,VALID,97.1722,VALID,-0.118866,VALID,20.0023,VALID,126,VALID,0.00117188,
2009-08-21, 02:51:00,VALID,916.823,VALID,0,VALID,96.9738,VALID,-0.101885,VALID,20.0255,VALID,149,VALID,0.419531,
2009-08-21, 02:52:00,VALID,916.822,VALID,0,VALID,96.7666,VALID,-0.101885,VALID,20.0513,VALID,136,VALID,0.52309,
2009-08-21, 02:53:00,VALID,916.784,VALID,0,VALID,96.5135,VALID,-0.0679233,VALID,20.0835,VALID,152,VALID,0.242746,
2009-08-21, 02:54:00,VALID,916.789,VALID,0,VALID,96.2783,VALID,-0.0339617,VALID,20.1129,VALID,127,VALID,0.332564,
2009-08-21, 02:55:00,VALID,916.79,VALID,0,VALID,96.1142,VALID,-0.0679233,VALID,20.1356,VALID,109,VALID,0.0181108,
2009-08-21, 02:56:00,VALID,916.769,VALID,0,VALID,95.954,VALID,-0.0509425,VALID,20.1454,VALID,202,VALID,0.26399,
2009-08-21, 02:57:00,VALID,916.761,VALID,0,VALID,95.701,VALID,-0.0339617,VALID,20.1551,VALID,175,VALID,0.377362,
2009-08-21, 02:58:00,VALID,916.755,VALID,0,VALID,95.5128,VALID,-0.0169808,VALID,20.2065,VALID,27,VALID,0.0806686,
2009-08-21, 02:59:00,VALID,916.76,VALID,0,VALID,95.2737,VALID,-0.0169808,VALID,20.2525,VALID,336,VALID,0.0245028,
2009-08-21, 03:00:00,VALID,916.771,VALID,0,VALID,95.172,VALID,-0.101885,VALID,20.266,VALID,236,VALID,0.370313,
2009-08-21, 03:01:00,VALID,916.743,VALID,0,VALID,94.5718,VALID,-0.101885,VALID,20.2622,VALID,255,VALID,0.105859,
2009-08-21, 03:02:00,VALID,916.761,VALID,0,VALID,94.3887,VALID,-0.0509425,VALID,20.3601,VALID,324,VALID,0,
2009-08-21, 03:03:00,VALID,916.748,VALID,0,VALID,94.6519,VALID,-0.0509425,VALID,20.3758,VALID,265,VALID,0,
2009-08-21, 03:04:00,VALID,916.729,VALID,0,VALID,95.2521,VALID,-0.0849042,VALID,20.3179,VALID,270,VALID,0,
2009-08-21, 03:05:00,VALID,916.768,VALID,0,VALID,96.0265,VALID,-0.0679233,VALID,20.1743,VALID,263,VALID,0,
2009-08-21, 03:06:00,VALID,916.763,VALID,0,VALID,96.8085,VALID,-0.0849042,VALID,20.0712,VALID,268,VALID,0,
2009-08-21, 03:07:00,VALID,916.761,VALID,0,VALID,97.4011,VALID,-0.0509425,VALID,19.9609,VALID,270,VALID,0.0846037,
2009-08-21, 03:08:00,VALID,916.767,VALID,0,VALID,97.7432,VALID,-0.0849042,VALID,19.8665,VALID,262,VALID,0.116815,
2009-08-21, 03:09:00,VALID,916.792,VALID,0,VALID,97.7419,VALID,-0.0509425,VALID,19.8179,VALID,248,VALID,0.0310683,
2009-08-21, 03:10:00,VALID,916.8,VALID,0,VALID,97.7241,VALID,-0.101885,VALID,19.8346,VALID,258,VALID,0,
2009-08-21, 03:11:00,VALID,916.803,VALID,0,VALID,97.6898,VALID,-0.0849042,VALID,19.8403,VALID,259,VALID,0,
2009-08-21, 03:12:00,VALID,916.792,VALID,0,VALID,97.6758,VALID,-0.0169808,VALID,19.8493,VALID,259,VALID,0,
2009-08-21, 03:13:00,VALID,916.782,VALID,0,VALID,97.7152,VALID,0.0169808,VALID,19.8263,VALID,274,VALID,0,
2009-08-21, 03:14:00,VALID,916.781,VALID,0,VALID,97.8779,VALID,0.0339617,VALID,19.7904,VALID,293,VALID,0.0803052,
2009-08-21, 03:15:00,VALID,916.766,VALID,0,VALID,98.0738,VALID,0,VALID,19.7677,VALID,269,VALID,0.118716,
2009-08-21, 03:16:00,VALID,916.776,VALID,0,VALID,98.2467,VALID,0.0339617,VALID,19.745,VALID,262,VALID,0.100109,
2009-08-21, 03:17:00,VALID,916.785,VALID,0,VALID,98.3535,VALID,0.0509425,VALID,19.735,VALID,261,VALID,0.00266768,
2009-08-21, 03:18:00,VALID,916.815,VALID,0,VALID,98.4196,VALID,0.0679233,VALID,19.722,VALID,253,VALID,0,
2009-08-21, 03:19:00,VALID,916.809,VALID,0,VALID,98.4909,VALID,0.0509425,VALID,19.7095,VALID,252,VALID,0,
2009-08-21, 03:20:00,VALID,916.807,VALID,0,VALID,98.5875,VALID,0.0679233,VALID,19.6634,VALID,270,VALID,0,
2009-08-21, 03:21:00,VALID,916.835,VALID,0,VALID,98.7236,VALID,0.0169808,VALID,19.6377,VALID,253,VALID,0,
2009-08-21, 03:22:00,VALID,916.85,VALID,0,VALID,98.8011,VALID,0.0169808,VALID,19.6314,VALID,247,VALID,0,
2009-08-21, 03:23:00,VALID,916.869,VALID,0,VALID,98.8431,VALID,0.0169808,VALID,19.6312,VALID,247,VALID,0,
2009-08-21, 03:24:00,VALID,916.886,VALID,0,VALID,98.8189,VALID,0.0679233,VALID,19.6344,VALID,247,VALID,0,
2009-08-21, 03:25:00,VALID,916.919,VALID,0,VALID,98.7414,VALID,0.0509425,VALID,19.6152,VALID,247,VALID,0,
2009-08-21, 03:26:00,VALID,916.947,VALID,0,VALID,98.7833,VALID,0.0509425,VALID,19.5758,VALID,249,VALID,0,
2009-08-21, 03:27:00,VALID,916.947,VALID,0,VALID,98.8545,VALID,-0.0339617,VALID,19.5605,VALID,272,VALID,0,
2009-08-21, 03:28:00,VALID,916.957,VALID,0,VALID,98.8355,VALID,-0.0679233,VALID,19.5321,VALID,250,VALID,0,
2009-08-21, 03:29:00,VALID,916.993,VALID,0,VALID,98.7948,VALID,-0.0169808,VALID,19.5485,VALID,248,VALID,0,
2009-08-21, 03:30:00,VALID,917.032,VALID,0,VALID,98.6676,VALID,-0.0169808,VALID,19.5713,VALID,247,VALID,0,
2009-08-21, 03:31:00,VALID,917.059,VALID,0,VALID,98.5532,VALID,-0.0339617,VALID,19.5605,VALID,212,VALID,0,
2009-08-21, 03:32:00,VALID,917.082,VALID,0,VALID,98.384,VALID,-0.0339617,VALID,19.5645,VALID,203,VALID,0,
2009-08-21, 03:33:00,VALID,917.096,VALID,0,VALID,98.3561,VALID,-0.0509425,VALID,19.5321,VALID,185,VALID,0,
2009-08-21, 03:34:00,VALID,917.115,VALID,0,VALID,98.4425,VALID,-0.0169808,VALID,19.5188,VALID,183,VALID,0,
2009-08-21, 03:35:00,VALID,917.124,VALID,0,VALID,98.5672,VALID,-0.0339617,VALID,19.4931,VALID,187,VALID,0,
2009-08-21, 03:36:00,VALID,917.136,VALID,0,VALID,98.6727,VALID,-0.0169808,VALID,19.4762,VALID,195,VALID,0,
2009-08-21, 03:37:00,VALID,917.142,VALID,0,VALID,98.7846,VALID,-0.0679233,VALID,19.4737,VALID,201,VALID,0,
2009-08-21, 03:38:00,VALID,917.139,VALID,0,VALID,98.8024,VALID,-0.0169808,VALID,19.4762,VALID,210,VALID,0,
2009-08-21, 03:39:00,VALID,917.146,VALID,0,VALID,98.8494,VALID,0,VALID,19.4964,VALID,219,VALID,0,
2009-08-21, 03:40:00,VALID,917.135,VALID,0,VALID,98.8075,VALID,-0.0169808,VALID,19.5256,VALID,224,VALID,0,